Location: Bremen
(53.0793°N, 8.8017°E)
Time: 02:10:06
(UTC+01:00)

deb Explorer IX - Visible Passes

Search period start: 07 December 2021 00:00
Search period end: 17 December 2021 00:00
Orbit: 546 x 1085 km, 38.8° (Epoch: 05 December)

Date Brightness Start Highest point End Pass type
(mag) Time Alt. Az. Time Alt. Az. Time Alt. Az.
13 Dec ? 07:25:30 10° SSW 07:28:49 15° SSE 07:31:53 10° SE visible
14 Dec ? 07:00:08 10° SSW 07:03:41 16° SSE 07:06:59 10° SE visible
15 Dec ? 06:34:45 10° SSW 06:38:32 16° SSE 06:42:03 10° SE visible
16 Dec ? 06:09:21 10° SSW 06:13:22 17° SSE 06:17:05 10° SE visible
